DW5856 Weather Reports


Display with metric or nautical units.
time (UTC)temp
F
wind
direction
speed
MPH
gust
MPH
rain 1hr
in
rain 24hr
in
rain mn
in
humidity
%
barometer
mb
20260510183053 63 62 1.0 10.0 0.00 0.22 0.19 47 1016.8
20260510181544 63 82 0.0 9.0 0.00 0.22 0.19 47 1016.8
20260510180045 63 162 3.0 8.0 0.00 0.22 0.19 48 1016.9
20260510174539 62 161 4.0 9.0 0.00 0.22 0.19 53 1016.9
20260510173036 61 137 1.0 8.0 0.00 0.22 0.19 51 1017.0
20260510171536 60 121 4.0 9.0 0.00 0.22 0.19 59 1017.0
20260510170034 60 69 1.0 7.0 0.00 0.22 0.19 53 1017.0
20260510164536 60 138 1.0 8.0 0.00 0.22 0.19 55 1017.1
20260510163027 59 148 2.0 7.0 0.00 0.22 0.19 60 1017.2
20260510161526 59 112 2.0 8.0 0.00 0.22 0.19 64 1017.2
20260510160022 58 160 3.0 7.0 0.00 0.22 0.19 65 1017.0
20260510154522 58 155 2.0 5.0 0.00 0.22 0.19 66 1016.9
20260510153019 58 224 0.0 0.0 0.00 0.00 0.19 68 1016.9
20260510151514 56 224 1.0 4.0 0.00 0.22 0.19 72 1016.9
20260510150011 54 225 1.0 5.0 0.00 0.22 0.19 72 1016.7
20260510144507 53 216 0.0 5.0 0.00 0.22 0.19 77 1016.9
20260510143007 53 219 2.0 5.0 0.00 0.22 0.19 77 1017.0
20260510141504 52 174 1.0 4.0 0.00 0.22 0.19 79 1016.9
20260510140039 51 208 2.0 5.0 0.00 0.22 0.19 80 1017.0
20260510134537 50 202 1.0 4.0 0.00 0.22 0.19 82 1017.0
20260510133031 49 202 0.0 3.0 0.00 0.22 0.19 84 1017.0
20260510131534 48 202 0.0 5.0 0.00 0.22 0.19 85 1016.9
20260510130026 48 201 1.0 5.0 0.00 0.22 0.19 87 1016.8
20260510124626 47 202 1.0 5.0 0.00 0.22 0.19 90 1016.8
20260510123030 45 202 0.0 6.0 0.00 0.22 0.19 91 1016.8
20260510121525 44 182 2.0 5.0 0.00 0.22 0.19 92 1016.6
20260510120023 44 179 2.0 6.0 0.00 0.22 0.19 92 1016.6
20260510114519 44 179 3.0 5.0 0.00 0.22 0.19 92 1016.7
20260510113021 44 102 0.0 1.0 0.00 0.22 0.19 92 1016.7
20260510111517 44 102 0.0 3.0 0.00 0.22 0.19 92 1016.8
20260510110025 44 102 3.0 7.0 0.00 0.22 0.19 91 1016.3
20260510104512 44 102 2.0 5.0 0.01 0.22 0.19 90 1016.1
20260510103011 45 44 0.0 1.0 0.03 0.22 0.19 89 1016.1
20260510101508 45 44 2.0 5.0 0.05 0.22 0.19 90 1016.1
20260510100007 46 44 5.0 7.0 0.09 0.22 0.19 89 1016.2
20260510094513 46 5 5.0 8.0 0.12 0.21 0.18 88 1016.1
20260510093002 46 38 3.0 8.0 0.10 0.19 0.16 88 1015.9
20260510091600 47 17 8.0 12.0 0.08 0.17 0.14 90 1015.7
20260510090058 47 38 8.0 11.0 0.04 0.13 0.10 90 1015.6
20260510084600 47 23 9.0 12.0 0.00 0.09 0.06 90 1015.5
20260510083054 48 185 2.0 4.0 0.00 0.09 0.06 90 1014.9
20260510081551 47 186 0.0 4.0 0.01 0.09 0.06 88 1014.6
20260510080050 47 188 0.0 2.0 0.02 0.09 0.06 87 1014.9
20260510074548 47 188 0.0 3.0 0.04 0.09 0.06 88 1014.9
20260510073049 47 188 2.0 3.0 0.06 0.09 0.06 87 1014.6
20260510071552 47 188 0.0 5.0 0.05 0.08 0.05 87 1014.9
20260510070044 48 174 3.0 8.0 0.04 0.07 0.04 86 1014.7
20260510064541 48 226 3.0 7.0 0.02 0.05 0.02 86 1015.1
20260510063040 48 193 4.0 12.0 0.00 0.03 0.00 85 1014.9
20260510061537 48 186 8.0 12.0 0.00 0.03 0.00 86 1014.3
20260510060030 48 200 8.0 14.0 0.01 0.03 0.03 84 1014.1
20260510054529 48 201 8.0 15.0 0.02 0.03 0.03 84 1014.1
20260510053048 48 176 7.0 8.0 0.03 0.03 0.03 83 1014.3
20260510051527 48 159 6.0 11.0 0.03 0.03 0.03 82 1014.2
20260510050028 49 162 6.0 9.0 0.02 0.02 0.02 81 1014.2
20260510044522 50 267 1.0 4.0 0.01 0.01 0.01 74 1014.1
20260510043036 51 267 0.0 3.0 0.00 0.00 0.00 70 1014.2
20260510041525 51 46 0.0 3.0 0.00 0.00 0.00 67 1014.1
20260510040031 50 46 4.0 6.0 0.00 0.00 0.00 67 1013.6
20260510034512 51 43 4.0 8.0 0.00 0.00 0.00 67 1013.1
20260510033010 51 44 7.0 14.0 0.00 0.00 0.00 66 1012.5
20260510031511 51 349 10.0 15.0 0.00 0.00 0.00 67 1012.6
20260510030007 50 5 9.0 13.0 0.00 0.00 0.00 67 1012.4
20260510024506 50 20 10.0 17.0 0.00 0.00 0.00 66 1011.7
20260510023005 51 40 14.0 22.0 0.00 0.00 0.00 66 1010.6
20260510021502 51 33 17.0 25.0 0.00 0.00 0.00 65 1010.5
20260510020059 52 40 18.0 25.0 0.00 0.00 0.00 64 1010.1
20260510014556 52 22 20.0 31.0 0.00 0.00 0.00 64 1009.3
20260510013055 53 23 25.0 37.0 0.00 0.00 0.00 63 1009.1
20260510011554 53 360 24.0 37.0 0.00 0.00 0.00 64 1008.7
20260510010050 54 31 25.0 37.0 0.00 0.00 0.00 63 1007.9
20260510004551 54 24 28.0 41.0 0.00 0.00 0.00 63 1007.4
20260510003044 55 22 29.0 41.0 0.00 0.00 0.00 61 1006.5
20260510001543 55 25 31.0 42.0 0.00 0.00 0.00 61 1006.0
20260510000047 56 24 34.0 43.0 0.00 0.00 0.00 58 1005.5
20260509234536 59 19 28.0 41.0 0.00 0.00 0.00 51 1004.6
20260509233035 70 36 14.0 20.0 0.00 0.00 0.00 32 1003.5
20260509231536 71 88 5.0 11.0 0.00 0.00 0.00 32 1002.7
20260509230035 71 59 7.0 13.0 0.00 0.00 0.00 33 1002.4
20260509224532 71 86 7.0 14.0 0.00 0.00 0.00 32 1002.2
20260509223033 72 69 7.0 14.0 0.00 0.00 0.00 29 1002.3
20260509221533 73 96 7.0 15.0 0.00 0.00 0.00 31 1002.1
20260509220032 74 84 8.0 15.0 0.00 0.00 0.00 29 1002.3
20260509214528 73 78 6.0 16.0 0.00 0.00 0.00 29 1002.5
20260509213031 72 53 6.0 17.0 0.00 0.00 0.00 28 1002.7
20260509211523 72 39 8.0 13.0 0.00 0.00 0.00 27 1002.9
20260509210023 73 61 6.0 11.0 0.00 0.00 0.00 28 1002.9
20260509204520 73 127 5.0 16.0 0.00 0.00 0.00 27 1003.0
20260509203018 75 117 7.0 14.0 0.00 0.00 0.00 22 1003.0
20260509201516 76 132 5.0 12.0 0.00 0.00 0.00 21 1003.2
20260509200014 77 111 3.0 11.0 0.00 0.00 0.00 19 1003.3
20260509194512 76 148 8.0 16.0 0.00 0.00 0.00 19 1003.3
20260509193018 76 138 10.0 22.0 0.00 0.00 0.00 20 1003.3
20260509191509 75 123 8.0 24.0 0.00 0.00 0.00 21 1003.4
20260509190008 75 157 8.0 19.0 0.00 0.00 0.00 20 1003.3
20260509184522 75 137 10.0 22.0 0.00 0.00 0.00 20 1003.5